Date String (YYYY-MM-DD hh:mm:ss) UTC,Instrument flags,Ambient pressure (hPa),Sample flow (lpm),Bypass flow (lpm),Sample temperature (°C),Ambient temperature (°C),ASC tube jacket temperature (°C),LED temperature (°C),Box temperature (°C),Sample RH (%),Span deviation,Mass concentration (μg/m³),Mass concentration (μg/m³),Mass concentration (μg/m³)
DateTimeUTC,F1_M11,P_M11,Q1_M11,Q2_M11,T1_M11,T2_M11,T3_M11,T4_M11,T5_M11,U1_M11,ZSPAN_M11,X0_M11,X2_M11,X1_M11
2021-09-07 22:00:00,,0831.7,4.99,0.00,28.9,27.1,00.0,38.0,30.7,16.7,0001.3,0071.70,0044.72,0041.37
2021-09-07 22:01:00,,0831.7,5.00,0.00,29.0,27.5,00.0,38.0,30.8,16.7,0001.2,0072.24,0044.80,0041.39
2021-09-07 22:02:00,,0831.7,4.99,0.00,29.0,27.8,00.0,38.0,30.9,16.9,0001.3,0071.94,0044.86,0041.38
2021-09-07 22:03:00,,0831.7,5.00,0.00,29.1,28.1,00.0,38.0,31.1,17.1,0001.5,0072.58,0044.81,0041.34
2021-09-07 22:04:00,,0831.7,5.00,0.00,29.2,28.3,00.0,38.1,31.1,16.8,0002.0,0071.32,0044.92,0041.41
2021-09-07 22:05:00,,0831.7,5.00,0.00,29.2,27.2,00.0,38.1,30.8,16.7,0002.0,0071.26,0044.90,0041.42
2021-09-07 22:06:00,,0831.7,5.01,0.00,29.0,25.6,00.0,38.0,30.3,16.8,0002.0,0071.54,0044.82,0041.39
2021-09-07 22:07:00,,0831.6,4.99,0.00,28.9,25.7,00.0,38.0,30.3,17.0,0001.8,0071.29,0044.80,0041.36
2021-09-07 22:08:00,,0831.7,4.99,0.00,28.9,26.2,00.0,38.0,30.5,17.1,0001.1,0070.88,0044.82,0041.38
2021-09-07 22:09:00,,0831.7,5.00,0.00,28.9,26.7,00.0,38.0,30.6,17.5,0000.8,0071.77,0044.88,0041.39
2021-09-07 22:10:00,,0831.7,5.00,0.00,28.9,27.1,00.0,38.0,30.7,17.6,0000.9,0073.26,0045.01,0041.43
2021-09-07 22:11:00,,0831.7,5.00,0.00,29.0,27.5,00.0,38.0,30.8,17.3,0001.1,0075.42,0045.01,0041.43
2021-09-07 22:12:00,,0831.7,5.01,0.00,29.0,27.9,00.0,38.0,30.9,17.0,0001.3,0074.48,0044.96,0041.42
2021-09-07 22:13:00,,0831.7,4.99,0.00,29.1,28.1,00.0,38.0,31.0,17.1,0001.0,0074.49,0044.91,0041.44
2021-09-07 22:14:00,,0831.6,5.02,0.00,29.1,27.2,00.0,38.0,30.8,17.1,0000.9,0073.35,0044.89,0041.48
2021-09-07 22:15:00,,0831.7,5.00,0.00,29.0,25.6,00.0,38.0,30.4,17.7,0000.8,0074.41,0044.83,0041.49
2021-09-07 22:16:00,,0831.6,5.00,0.00,28.9,25.7,00.0,38.0,30.3,17.6,0000.8,0074.77,0044.84,0041.48
2021-09-07 22:17:00,,0831.6,5.01,0.00,28.8,26.1,00.0,38.0,30.5,18.1,0000.9,0074.80,0044.84,0041.46
2021-09-07 22:18:00,,0831.6,4.99,0.00,28.8,26.6,00.0,38.0,30.5,17.9,0001.1,0076.41,0044.79,0041.44
2021-09-07 22:19:00,,0831.6,5.01,0.00,28.9,27.0,00.0,37.9,30.7,17.6,0001.6,0077.07,0044.76,0041.42
2021-09-07 22:20:00,,0831.6,5.00,0.00,28.9,27.5,00.0,38.0,30.8,17.2,0001.9,0076.19,0044.64,0041.36
2021-09-07 22:21:00,,0831.7,5.00,0.00,29.0,27.8,00.0,38.0,30.9,17.0,0001.6,0073.62,0044.45,0041.29
2021-09-07 22:22:00,,0831.6,4.99,0.00,29.1,28.0,00.0,38.0,31.0,17.1,0001.4,0070.73,0044.30,0041.20
2021-09-07 22:23:00,,0831.6,5.00,0.00,29.1,28.0,00.0,38.0,31.0,17.2,0001.3,0070.56,0044.22,0041.15
2021-09-07 22:24:00,,0831.5,5.01,0.00,29.1,26.5,00.0,38.0,30.6,17.4,0001.4,0070.27,0044.20,0041.13
2021-09-07 22:25:00,,0831.5,5.00,0.00,28.9,25.5,00.0,38.0,30.2,17.5,0001.0,0069.85,0044.06,0041.01
2021-09-07 22:26:00,,0831.5,4.99,0.00,28.8,25.8,00.0,38.0,30.3,17.5,0000.9,0069.73,0044.03,0040.93
2021-09-07 22:27:00,,0831.5,5.01,0.00,28.8,26.3,00.0,37.9,30.4,17.6,0001.3,0068.59,0043.93,0040.87
2021-09-07 22:28:00,,0831.5,4.99,0.00,28.8,26.7,00.0,37.9,30.6,17.6,0001.3,0068.43,0043.80,0040.81
2021-09-07 22:29:00,,0831.5,5.00,0.00,28.9,27.2,00.0,37.9,30.7,17.6,0001.4,0068.45,0043.74,0040.76
2021-09-07 22:30:00,,0831.6,5.01,0.00,28.9,27.6,00.0,37.9,30.8,17.5,0001.4,0067.77,0043.63,0040.71
2021-09-07 22:31:00,,0831.6,5.01,0.00,29.0,27.9,00.0,38.0,30.9,17.5,0001.2,0067.17,0043.61,0040.72
2021-09-07 22:32:00,,0831.6,5.00,0.00,29.1,28.1,00.0,38.0,31.0,17.5,0001.3,0067.36,0043.72,0040.74
2021-09-07 22:33:00,,0831.6,5.00,0.00,29.1,27.5,00.0,38.0,30.9,17.4,0001.2,0068.24,0043.81,0040.78
2021-09-07 22:34:00,,0831.5,5.00,0.00,29.0,25.7,00.0,38.0,30.3,17.4,0001.0,0071.23,0043.84,0040.78
2021-09-07 22:35:00,,0831.6,5.01,0.00,28.8,25.5,00.0,37.9,30.2,17.5,0001.0,0072.14,0043.88,0040.78
2021-09-07 22:36:00,,0831.5,5.01,0.00,28.8,25.9,00.0,37.9,30.4,17.7,0001.4,0073.98,0044.16,0040.87
2021-09-07 22:37:00,,0831.5,5.00,0.00,28.8,26.4,00.0,37.9,30.4,17.8,0001.1,0073.80,0044.26,0040.86
2021-09-07 22:38:00,,0831.5,5.00,0.00,28.8,26.9,00.0,37.9,30.6,17.9,0000.5,0074.80,0044.38,0040.87
2021-09-07 22:39:00,,0831.5,4.99,0.00,28.9,27.3,00.0,37.9,30.7,17.7,0000.4,0075.35,0044.44,0040.86
2021-09-07 22:40:00,,0831.5,5.01,0.00,28.9,27.7,00.0,37.9,30.8,17.9,0000.3,0075.54,0044.51,0040.91
2021-09-07 22:41:00,,0831.5,4.99,0.00,29.0,28.0,00.0,37.9,30.9,17.7,0000.2,0076.06,0044.52,0040.90
2021-09-07 22:42:00,,0831.5,5.00,0.00,29.0,27.5,00.0,38.0,30.8,17.6,0000.4,0077.93,0044.51,0040.90
2021-09-07 22:43:00,,0831.6,5.00,0.00,28.9,25.8,00.0,37.9,30.3,17.7,0000.6,0079.19,0044.39,0040.85
2021-09-07 22:44:00,,0831.6,5.00,0.00,28.8,25.5,00.0,37.9,30.2,17.9,0000.7,0078.67,0044.47,0040.90
2021-09-07 22:45:00,,0831.5,5.00,0.00,28.8,25.9,00.0,37.9,30.3,17.9,0000.8,0076.43,0044.58,0040.93
2021-09-07 22:46:00,,0831.5,5.00,0.00,28.7,26.3,00.0,37.9,30.4,17.9,0000.7,0076.16,0044.65,0040.91
2021-09-07 22:47:00,,0831.5,4.99,0.00,28.8,26.8,00.0,37.9,30.5,18.1,0000.6,0075.14,0044.52,0040.85
2021-09-07 22:48:00,,0831.5,5.01,0.00,28.8,27.2,00.0,37.9,30.6,17.9,0000.8,0075.19,0044.44,0040.84
2021-09-07 22:49:00,,0831.5,4.99,0.00,28.9,27.6,00.0,37.9,30.8,18.0,0001.1,0074.66,0044.32,0040.80
2021-09-07 22:50:00,,0831.5,5.00,0.00,28.9,27.9,00.0,37.9,30.9,18.2,0001.3,0074.76,0044.33,0040.82
2021-09-07 22:51:00,,0831.5,5.00,0.00,29.0,28.2,00.0,37.9,31.0,18.1,0001.3,0072.80,0044.24,0040.75
2021-09-07 22:52:00,,0831.5,5.00,0.00,29.1,28.4,00.0,38.0,31.1,17.8,0001.3,0071.50,0044.21,0040.69
2021-09-07 22:53:00,,0831.5,5.01,0.00,29.1,28.2,00.0,38.0,31.1,17.5,0001.4,0069.86,0044.22,0040.66
2021-09-07 22:54:00,,0831.5,5.00,0.00,29.1,26.5,00.0,38.0,30.6,17.7,0001.1,0069.62,0044.26,0040.69
2021-09-07 22:55:00,,0831.5,5.00,0.00,28.9,25.6,00.0,38.0,30.3,17.8,0001.2,0070.25,0044.19,0040.62
2021-09-07 22:56:00,,0831.5,5.01,0.00,28.9,26.0,00.0,38.0,30.4,17.9,0001.2,0069.61,0044.02,0040.52
2021-09-07 22:57:00,,0831.6,4.99,0.00,28.8,26.5,00.0,37.9,30.5,18.2,0001.2,0070.07,0043.91,0040.45
2021-09-07 22:58:00,,0831.5,5.01,0.00,28.9,26.9,00.0,37.9,30.6,18.0,0001.4,0069.52,0043.90,0040.44
2021-09-07 22:59:00,,0831.5,5.01,0.00,28.9,27.3,00.0,37.9,30.7,17.9,0001.4,0069.45,0043.84,0040.39
